Weather observations for the past three days for
Fort Meade / Tipton
Imperial (Metric)
Date Time (edt) Wind (mph) Vis. (mi.) Weather Sky Cond. Temperature (ºF) Relative Humidity Wind Chill (°F) Heat Index (°F) Pressure Precipitation (in)
Air Dwpt 6 hour altimeter (in) sea level (mb) 1 hr 3 hr 6 hr
Max. Min.
12 12:29 NW 5 10.00 Mostly Cloudy SCT033 SCT046 BKN060 77 71.6 83% 78 30.19 0.0
12 12:09 Calm 10.00 Mostly Cloudy BKN060 77 71.6 83% 78 30.21 0.0
12 11:49 Calm 10.00 Overcast SCT043 SCT050 OVC060 75.2 71.6 89% 75 30.21 0.0
12 11:29 Calm 10.00 Overcast SCT043 SCT050 OVC060 75.2 71.6 89% 75 30.21 0.0
12 11:09 E 3 10.00 Partly Cloudy SCT060 77 69.8 79% 79 30.2 0.0
12 10:49 Calm 10.00 Fair CLR 75.2 69.8 83% 75 30.19 0.0
12 10:29 N 6 10.00 Partly Cloudy SCT019 75.2 69.8 83% 75 30.17 0.0
12 10:09 Calm 10.00 Overcast BKN019 OVC025 73.4 69.8 89% 30.18 0.0
12 09:49 Calm 10.00 Overcast BKN019 OVC029 73.4 71.6 94% 30.19 0.0
12 09:29 Calm 10.00 Partly Cloudy SCT019 75.2 69.8 83% 75 30.18 0.0
12 09:09 Calm 10.00 Partly Cloudy SCT090 73.4 69.8 89% 30.16 0.0
12 08:49 NW 5 10.00 Mostly Cloudy SCT017 SCT026 BKN090 71.6 69.8 94% 30.15 0.0
12 08:29 Calm 10.00 Overcast SCT017 BKN060 OVC080 71.6 71.6 100% 30.18 0.0
12 08:09 Calm 5.00 Overcast BKN060 BKN070 OVC085 71.6 71.6 100% 30.18 0.0
12 07:49 Calm 5.00 Overcast SCT047 SCT060 OVC070 71.6 69.8 94% 30.16 0.0
12 07:29 Calm 10.00 Overcast SCT047 OVC060 71.6 69.8 94% 30.16 0.0
12 07:09 Calm 4.00 Overcast OVC060 69.8 69.8 100% 30.16 0.0
12 06:49 Calm 7.00 Overcast OVC060 69.8 69.8 100% 30.15 0.0
12 06:29 Calm 5.00 Overcast SCT032 SCT042 OVC060 69.8 68 94% 30.15 0.0
12 06:09 Calm 4.00 Overcast SCT047 BKN060 OVC085 68 68 100% 30.13 0.0
12 05:49 Calm 7.00 Mostly Cloudy SCT070 BKN100 BKN120 69.8 68 94% 30.12 0.0
12 05:29 Calm 10.00 Mostly Cloudy BKN100 69.8 66.2 88% 30.11 0.0
12 05:09 Calm 10.00 Overcast SCT070 OVC100 69.8 68 94% 30.12 0.0
12 04:49 Calm 10.00 Overcast SCT070 OVC100 68 66.2 94% 30.13 0.0
12 04:29 Calm 10.00 Overcast OVC100 68 66.2 94% 30.12 0.0
12 04:09 Calm 10.00 Overcast OVC100 68 66.2 94% 30.11 0.0
12 03:49 Calm 10.00 Overcast OVC100 68 64.4 88% 30.11 0.0
12 03:29 Calm 10.00 Overcast OVC100 68 64.4 88% 30.1 0.0
12 03:09 Calm 10.00 Partly Cloudy SCT100 68 64.4 88% 30.11 0.0
12 02:49 Calm 10.00 Fair CLR 68 64.4 88% 30.11 0.0
12 02:29 Calm 10.00 Fair CLR 68 64.4 88% 30.1 0.0
12 02:09 Calm 10.00 Fair CLR 68 64.4 88% 30.11 0.0
12 01:49 Calm 10.00 Partly Cloudy SCT050 68 66.2 94% 30.11 0.0
12 01:29 Calm 10.00 Mostly Cloudy BKN048 BKN055 69.8 66.2 88% 30.12 0.0
12 01:09 Calm 10.00 Mostly Cloudy BKN046 68 66.2 94% 30.12 0.0
12 00:49 Calm 10.00 Partly Cloudy SCT046 68 66.2 94% 30.12 0.0
12 00:29 Calm 10.00 Fair CLR 68 66.2 94% 30.12 0.0
12 00:09 Calm 10.00 Fair CLR 68 66.2 94% 30.11 0.0
11 23:49 Calm 10.00 Partly Cloudy SCT047 69.8 66.2 88% 30.11 0.0
11 23:29 Calm 10.00 Mostly Cloudy BKN045 69.8 66.2 88% 30.11 0.0
11 23:09 Calm 10.00 Mostly Cloudy BKN045 71.6 64.4 78% 30.11 0.0
11 22:49 Calm 10.00 Fair CLR 71.6 64.4 78% 30.1 0.0
11 22:29 Calm 10.00 Fair CLR 71.6 66.2 83% 30.1 0.0
11 22:09 Calm 10.00 Fair CLR 73.4 66.2 78% 30.1 0.0
11 21:49 Calm 10.00 Fair CLR 77 62.6 61% 79 30.09 0.0
11 21:29 Calm 10.00 Fair CLR 78.8 62.6 58% 80 30.08 0.0
11 21:09 N 3 10.00 Fair CLR 78.8 62.6 58% 80 30.08 0.0
11 20:49 N 5 10.00 Fair CLR 80.6 62.6 54% 82 30.08 0.0
11 20:29 Calm 10.00 Partly Cloudy SCT070 80.6 62.6 54% 82 30.07 0.0
11 20:09 NE 3 10.00 Mostly Cloudy BKN070 80.6 62.6 54% 82 30.06 0.0
11 19:49 Calm 10.00 Partly Cloudy SCT060 82.4 62.6 51% 83 30.06 0.0
11 19:29 N 6 10.00 Partly Cloudy SCT060 82.4 62.6 51% 83 30.06 0.0
11 19:09 N 3 10.00 Mostly Cloudy BKN060 82.4 62.6 51% 83 30.05 0.0
11 18:49 Calm 10.00 Overcast OVC060 84.2 62.6 48% 85 30.04 0.0
11 18:29 NW 6 10.00 Mostly Cloudy BKN070 86 62.6 46% 87 30.03 0.0
11 18:09 NW 3 10.00 Partly Cloudy SCT070 86 62.6 46% 87 30.03 0.0
11 17:49 NW 5 10.00 Partly Cloudy SCT070 86 62.6 46% 87 30.03 0.0
11 17:29 NW 7 10.00 Partly Cloudy SCT070 87.8 62.6 43% 88 30.02 0.0
11 17:09 NW 6 10.00 Mostly Cloudy BKN070 89.6 62.6 41% 90 30.02 0.0
11 16:49 NW 6 10.00 Partly Cloudy SCT065 SCT070 87.8 62.6 43% 88 30.02 0.0
11 16:29 N 3 10.00 Partly Cloudy SCT065 87.8 62.6 43% 88 30.01 0.0
11 16:09 NW 3 10.00 NULL NULL 86 62.6 46% 87 30.01 0.0
11 15:49 W 5 10.00 NULL NULL 87.8 62.6 43% 88 30.01 0.0
11 15:29 N 3 10.00 NULL NULL 86 62.6 46% 87 30.01 0.0
11 15:09 N 3 10.00 NULL NULL 87.8 62.6 43% 88 30.01 0.0
11 14:49 W 6 10.00 NULL NULL 87.8 62.6 43% 88 30.01 0.0
11 14:29 NW 7 10.00 NULL NULL 87.8 62.6 43% 88 30 0.0
11 14:09 N 5 10.00 NULL NULL 87.8 60.8 40% 88 30.01 0.0
11 13:49 W 10 G 16 10.00 NULL NULL 87.8 62.6 43% 88 30.01 0.0
11 13:29 NW 5 10.00 NULL NULL 86 60.8 43% 86 30.01 0.0
11 13:09 W 8 10.00 NULL NULL 86 60.8 43% 86 30.01 0.0
11 12:49 W 8 10.00 NULL NULL 87.8 62.6 43% 88 30.01 0.0
11 12:29 W 7 10.00 Fair CLR 86 62.6 46% 87 30.02 0.0
11 12:09 W 9 10.00 Fair CLR 86 60.8 43% 86 30.02 0.0
11 11:49 W 3 G 16 10.00 Fair CLR 84.2 60.8 45% 84 30.02 0.0
11 11:29 NW 9 G 16 10.00 Fair CLR 82.4 60.8 48% 83 30.02 0.0
11 11:09 NW 8 10.00 Fair CLR 82.4 60.8 48% 83 30.02 0.0
11 10:49 W 6 G 16 10.00 Fair CLR 82.4 60.8 48% 83 30.01 0.0
11 10:29 NW 9 G 18 10.00 Fair CLR 80.6 60.8 51% 81 30.01 0.0
11 10:09 NW 12 G 18 10.00 Fair CLR 80.6 60.8 51% 81 30.01 0.0
11 09:49 W 7 G 18 10.00 Fair CLR 78.8 60.8 54% 80 30 0.0
11 09:29 W 15 G 21 10.00 Fair CLR 78.8 60.8 54% 80 30 0.0
11 09:09 W 13 G 17 10.00 Fair CLR 77 62.6 61% 79 30 0.0
11 08:49 W 8 10.00 Fair CLR 77 60.8 57% 79 30 0.0
11 08:29 W 9 10.00 Fair CLR 75.2 62.6 65% 77 29.99 0.0
11 08:09 W 9 10.00 Fair CLR 73.4 62.6 69% 29.99 0.0
11 07:49 W 6 10.00 Fair CLR 71.6 64.4 78% 29.98 0.0
11 07:29 W 5 10.00 Fair CLR 69.8 64.4 83% 29.98 0.0
11 07:09 W 6 10.00 Fair CLR 68 66.2 94% 29.97 0.0
11 06:49 W 5 10.00 Partly Cloudy SCT075 68 66.2 94% 29.97 0.0
11 06:29 SW 3 10.00 Fair CLR 68 64.4 88% 29.96 0.0
11 06:09 SW 3 10.00 Fair CLR 66.2 64.4 94% 29.95 0.0
11 05:49 W 3 10.00 Fair CLR 66.2 64.4 94% 29.94 0.0
11 05:29 W 6 10.00 Fair CLR 68 64.4 88% 29.94 0.0
11 05:09 W 5 10.00 Partly Cloudy SCT080 68 64.4 88% 29.93 0.0
11 04:49 W 7 10.00 Overcast OVC080 69.8 66.2 88% 29.93 0.0
11 04:29 W 7 10.00 Overcast OVC080 69.8 66.2 88% 29.92 0.0
11 04:09 W 9 10.00 Overcast OVC070 69.8 64.4 83% 29.92 0.0
11 03:49 W 8 10.00 Overcast BKN070 OVC080 69.8 64.4 83% 29.91 0.0
11 03:29 NW 6 10.00 Overcast BKN070 OVC080 69.8 66.2 88% 29.9 0.0
11 03:09 NW 6 10.00 Overcast OVC085 69.8 66.2 88% 29.89 0.0
11 02:49 NW 3 10.00 Overcast OVC085 69.8 68 94% 29.89 0.0
11 02:29 NW 5 10.00 Overcast OVC085 69.8 68 94% 29.88 0.0
11 02:09 NW 5 10.00 Overcast OVC085 69.8 68 94% 29.87 0.0
11 01:49 W 9 G 18 10.00 Mostly Cloudy BKN085 69.8 68 94% 29.87 0.0
11 01:29 W 10 G 16 7.00 Partly Cloudy SCT085 SCT110 71.6 71.6 100% 29.85 0.0
11 01:09 Calm 7.00 Fair CLR 73.4 71.6 94% 29.85 0.0
11 00:49 W 6 10.00 Partly Cloudy SCT110 75.2 73.4 94% 74 29.84 0.0
11 00:29 NW 5 5.00 Overcast SCT046 SCT075 OVC110 77 77 100% 78 29.84 0.0
11 00:09 Calm 3.00 Overcast SCT020 BKN046 OVC095 77 77 100% 78 29.83 0.0
10 23:49 SW 3 4.00 Overcast BKN026 OVC036 77 77 100% 78 29.83 0.0
10 23:29 Calm 7.00 Overcast BKN026 BKN031 OVC037 77 77 100% 78 29.82 0.0
10 23:09 Calm 7.00 Overcast SCT025 BKN037 OVC065 77 77 100% 78 29.82 0.0
10 22:49 Calm 10.00 Overcast SCT023 BKN060 OVC110 77 77 100% 78 29.81 0.0
10 22:29 NW 3 7.00 Overcast SCT060 OVC110 77 77 100% 78 29.82 0.0
10 22:09 Calm 7.00 Partly Cloudy SCT110 78.8 77 94% 83 29.79 0.0
10 21:49 Calm 7.00 Fair CLR 78.8 77 94% 83 29.77 0.0
10 21:29 Calm 7.00 Partly Cloudy SCT100 78.8 78.8 100% 83 29.77 0.0
10 21:09 Calm 7.00 Overcast OVC090 78.8 78.8 100% 83 29.77 0.0
10 20:49 SE 3 7.00 Overcast SCT032 SCT048 OVC090 78.8 78.8 100% 83 29.77 0.0
10 20:29 SW 7 7.00 Mostly Cloudy SCT034 SCT043 BKN070 80.6 77 89% 87 29.78 0.0
10 20:09 SE 9 10.00 Fair CLR 82.4 77 84% 91 29.76 0.0
10 19:49 SE 6 10.00 Partly Cloudy SCT065 SCT090 82.4 77 84% 91 29.77 0.0
10 19:29 SE 9 10.00 Mostly Cloudy SCT060 BKN070 BKN090 82.4 77 84% 91 29.78 0.0
10 19:09 S 9 10.00 Partly Cloudy SCT070 SCT080 84.2 77 79% 94 29.78 0.0
10 18:49 SE 13 G 17 10.00 Partly Cloudy SCT060 86 77 75% 97 29.76 0.0
10 18:29 SE 6 10.00 Partly Cloudy SCT065 86 77 75% 97 29.75 0.0
10 18:09 SE 13 G 21 10.00 Mostly Cloudy SCT050 BKN065 86 77 75% 97 29.75 0.0
10 17:49 SE 12 G 20 10.00 Mostly Cloudy SCT050 BKN065 BKN070 87.8 77 70% 100 29.76 0.0
10 17:29 SE 13 G 22 10.00 Mostly Cloudy SCT050 BKN065 BKN080 87.8 77 70% 100 29.76 0.0
10 17:09 SE 15 G 22 10.00 Mostly Cloudy SCT050 SCT060 BKN075 89.6 77 67% 103 29.76 0.0
10 16:49 S 12 G 17 10.00 Partly Cloudy SCT048 SCT060 SCT070 89.6 77 67% 103 29.77 0.0
10 16:29 SE 13 G 21 10.00 NULL NULL 89.6 75.2 63% 100 29.77 0.0
10 16:09 SE 8 G 18 10.00 NULL NULL 87.8 75.2 66% 98 29.78 0.0
10 15:49 S 9 G 18 10.00 NULL NULL 89.6 77 67% 103 29.79 0.0
10 15:29 SE 6 G 10 10.00 NULL NULL 89.6 75.2 63% 100 29.8 0.0
10 15:09 SE 8 G 22 10.00 NULL NULL 91.4 75.2 59% 103 29.8 0.0
10 14:49 S 14 G 21 10.00 NULL NULL 91.4 77 63% 105 29.8 0.0
10 14:29 SE 15 G 21 10.00 NULL NULL 91.4 77 63% 105 29.81 0.0
10 14:09 SE 12 G 17 10.00 NULL NULL 89.6 75.2 63% 100 29.82 0.0
10 13:49 SE 12 G 17 10.00 NULL NULL 89.6 75.2 63% 100 29.82 0.0
10 13:29 SE 10 G 16 10.00 NULL NULL 93.2 75.2 56% 105 29.83 0.0
10 13:09 SE 10 G 17 10.00 NULL NULL 91.4 73.4 56% 100 29.83 0.0
10 12:49 S 9 G 17 10.00 NULL NULL 91.4 73.4 56% 100 29.84 0.0
10 12:29 SE 14 G 20 10.00 NULL NULL 91.4 73.4 56% 100 29.85 0.0
10 12:09 S 12 10.00 NULL NULL 89.6 75.2 63% 100 29.85 0.0
10 11:49 SE 13 G 17 10.00 NULL NULL 91.4 75.2 59% 103 29.85 0.0
10 11:29 SE 12 G 18 10.00 NULL NULL 89.6 75.2 63% 100 29.86 0.0
10 11:09 S 10 G 16 10.00 NULL NULL 89.6 77 67% 103 29.86 0.0
10 10:49 S 9 G 17 10.00 NULL NULL 89.6 77 67% 103 29.87 0.0
10 10:29 S 6 10.00 NULL NULL 87.8 77 70% 100 29.87 0.0
10 10:09 S 9 10.00 NULL NULL 87.8 77 70% 100 29.88 0.0
10 09:49 SE 8 10.00 Partly Cloudy SCT020 87.8 77 70% 100 29.88 0.0
10 09:29 S 7 10.00 Fair CLR 86 77 75% 97 29.88 0.0
10 09:09 S 7 10.00 Partly Cloudy SCT018 84.2 77 79% 94 29.89 0.0
10 08:49 S 6 10.00 Fair CLR 82.4 77 84% 91 29.88 0.0
10 08:29 S 6 10.00 Fair CLR 82.4 75.2 79% 89 29.89 0.0
10 08:09 S 5 10.00 Fair CLR 80.6 75.2 84% 86 29.89 0.0
10 07:49 S 3 10.00 Fair CLR 78.8 75.2 89% 82 29.89 0.0
10 07:29 S 6 10.00 Fair CLR 78.8 75.2 89% 82 29.89 0.0
10 07:09 S 3 10.00 Fair CLR 77 75.2 94% 78 29.89 0.0
10 06:49 S 3 10.00 Fair CLR 77 73.4 89% 78 29.89 0.0
10 06:29 Calm 10.00 Fair CLR 73.4 73.4 100% 29.89 0.0
10 06:09 Calm 7.00 Fair CLR 73.4 71.6 94% 29.89 0.0
10 05:49 Calm 7.00 Fair CLR 73.4 71.6 94% 29.89 0.0
10 05:29 Calm 7.00 Fair CLR 73.4 73.4 100% 29.89 0.0
10 05:09 Calm 10.00 Fair CLR 73.4 73.4 100% 29.89 0.0
10 04:49 Calm 10.00 Fair CLR 73.4 73.4 100% 29.89 0.0
10 04:29 Calm 10.00 Fair CLR 73.4 73.4 100% 29.89 0.0
10 04:09 Calm 10.00 Fair CLR 73.4 73.4 100% 29.89 0.0
10 03:49 Calm 10.00 Fair CLR 73.4 73.4 100% 29.89 0.0
10 03:29 Calm 10.00 Fair CLR 73.4 73.4 100% 29.9 0.0
10 03:09 Calm 10.00 Fair CLR 73.4 73.4 100% 29.9 0.0
10 02:49 Calm 10.00 Fair CLR 75.2 73.4 94% 74 29.9 0.0
10 02:29 Calm 10.00 Fair CLR 75.2 73.4 94% 74 29.9 0.0
10 02:09 SE 3 10.00 Fair CLR 75.2 73.4 94% 74 29.9 0.0
10 01:49 Calm 10.00 Fair CLR 73.4 73.4 100% 29.91 0.0
10 01:29 Calm 10.00 Fair CLR 75.2 73.4 94% 74 29.91 0.0
10 01:09 Calm 10.00 Fair CLR 77 73.4 89% 78 29.92 0.0
10 00:49 Calm 10.00 Fair CLR 77 73.4 89% 78 29.92 0.0
10 00:29 Calm 10.00 Fair CLR 77 73.4 89% 78 29.92 0.0
10 00:09 Calm 10.00 Fair CLR 78.8 75.2 89% 82 29.93 0.0
09 23:49 Calm 10.00 Fair CLR 78.8 75.2 89% 82 29.93 0.0
09 23:29 Calm 10.00 Fair CLR 78.8 75.2 89% 82 29.93 0.0
09 23:09 Calm 10.00 Fair CLR 78.8 75.2 89% 82 29.93 0.0
09 22:49 S 3 10.00 Fair CLR 80.6 75.2 84% 86 29.93 0.0
09 22:29 SE 3 10.00 Fair CLR 80.6 75.2 84% 86 29.94 0.0
09 22:09 SE 3 10.00 Fair CLR 80.6 73.4 79% 85 29.93 0.0
09 21:49 SE 3 10.00 Fair CLR 82.4 73.4 74% 88 29.93 0.0
09 21:29 SE 5 10.00 Fair CLR 82.4 73.4 74% 88 29.92 0.0
09 21:09 SE 6 10.00 Fair CLR 82.4 73.4 74% 88 29.92 0.0
09 20:49 SE 6 10.00 Fair CLR 84.2 73.4 70% 91 29.92 0.0
09 20:29 SE 5 10.00 Fair CLR 86 73.4 66% 93 29.92 0.0
09 20:09 SE 5 10.00 Fair CLR 86 73.4 66% 93 29.92 0.0
09 19:49 S 6 10.00 Fair CLR 86 73.4 66% 93 29.91 0.0
09 19:29 SE 7 10.00 Fair CLR 87.8 73.4 62% 96 29.91 0.0
09 19:09 SE 8 10.00 NULL NULL 87.8 73.4 62% 96 29.91 0.0
09 18:49 SE 7 10.00 NULL NULL 89.6 73.4 59% 98 29.91 0.0
09 18:29 SE 7 10.00 NULL NULL 89.6 75.2 63% 100 29.91 0.0
09 18:09 SE 6 10.00 NULL NULL 89.6 73.4 59% 98 29.91 0.0
09 17:49 E 7 10.00 NULL NULL 91.4 71.6 52% 99 29.92 0.0
09 17:29 SE 5 10.00 NULL NULL 91.4 71.6 52% 99 29.92 0.0
09 17:09 SE 6 10.00 NULL NULL 91.4 71.6 52% 99 29.93 0.0
09 16:49 E 6 10.00 NULL NULL 89.6 71.6 55% 96 29.93 0.0
09 16:29 E 5 10.00 NULL NULL 87.8 69.8 55% 93 29.93 0.0
09 16:09 NE 7 G 16 10.00 NULL NULL 89.6 69.8 52% 95 29.95 0.0
09 15:49 N 6 10.00 NULL NULL 93.2 73.4 53% 103 29.95 0.0
09 15:29 Calm 10.00 NULL NULL 93.2 73.4 53% 103 29.94 0.0
09 15:09 S 10 10.00 NULL NULL 91.4 75.2 59% 103 29.94 0.0
09 14:49 S 8 10.00 NULL NULL 93.2 71.6 50% 101 29.95 0.0
09 14:29 SW 10 10.00 NULL NULL 96.8 71.6 44% 105 29.95 0.0
09 14:09 S 9 10.00 NULL NULL 96.8 71.6 44% 105 29.95 0.0
09 13:49 S 8 10.00 NULL NULL 93.2 71.6 50% 101 29.95 0.0
09 13:29 Calm 10.00 NULL NULL 95 71.6 47% 103 29.96 0.0
09 13:09 S 6 10.00 NULL NULL 95 71.6 47% 103 29.97 0.0
09 12:49 S 5 10.00 NULL NULL 95 73.4 50% 105 29.97 0.0
Date Time (edt) Wind (mph) Vis. (mi.) Weather Sky Cond. Air Dwpt Max. Min. Relative Humidity Wind Chill (°F) Heat Index (°F) altimeter (in) sea level (mb) 1 hr 3 hr 6 hr
6 hour
Temperature (ºF) Pressure Precipitation (in)